Theta_e
314 313 314 313 314 314 314 316 316 317 318 319 321 322 323 327 323 317 330 340 327 322 335 341 339 336 334 334 333 333 331 329 326 326 332 340 341 342 345 349 351 353 354 355 354 353 351 349 349 349 349 349 349 349 349 350 350 351 350 351 351 351 351 351 351 351 352 352 352 351 352 351 351 351 351 351 351 351 351 351 351 351 351 351 351 352 352
314 313 314 314 314 315 315 317 319 321 326 329 328 325 325 325 321 322 336 343 331 330 341 347 350 348 344 340 341 343 339 330 327 328 329 335 342 343 345 348 350 351 353 354 353 354 353 349 349 350 350 350 350 350 350 350 350 350 351 351 351 351 351 351 351 352 351 352 351 352 351 351 351 351 351 352 351 351 352 352 351 352 352 352 352 352 352
316 314 314 314 315 315 316 322 327 328 334 341 336 331 335 335 329 328 331 330 331 338 344 351 356 355 355 353 352 356 353 341 334 332 333 338 344 345 345 348 350 351 353 354 354 355 354 350 350 350 350 350 351 350 351 351 350 351 350 351 351 351 351 351 351 351 351 351 352 352 352 352 351 351 352 351 352 352 352 352 352 352 352 352 352 352 352
319 318 316 315 315 318 323 328 329 327 334 345 342 337 341 344 343 340 330 326 339 348 351 357 357 354 357 358 356 358 358 351 346 340 339 344 346 346 348 348 351 352 351 353 354 353 351 350 349 350 350 351 351 351 351 351 351 351 351 351 351 351 352 351 351 352 351 351 352 352 352 352 351 352 352 352 352 352 352 352 352 352 352 352 352 352 352
322 319 314 315 320 329 334 331 326 325 330 338 340 339 337 337 342 347 341 339 346 350 351 357 360 356 356 357 355 355 357 358 354 347 344 348 347 346 349 350 351 352 351 352 353 351 349 349 349 350 350 351 351 351 352 352 352 352 352 352 351 352 352 352 352 352 352 352 352 353 352 353 353 353 353 352 353 352 352 353 353 353 353 352 352 352 352
320 317 314 320 330 336 335 328 322 323 327 329 334 337 335 333 336 341 342 343 345 347 350 354 357 357 356 355 353 352 354 357 357 355 348 348 348 347 350 350 350 352 351 352 350 349 349 349 349 350 351 352 352 352 353 352 353 353 353 353 353 353 352 352 353 352 353 352 352 353 353 353 353 353 353 353 353 353 353 353 353 353 353 353 353 353 353
318 317 320 332 339 334 329 323 319 322 324 324 328 334 333 329 332 334 335 338 340 344 349 350 350 355 355 353 353 351 350 353 356 359 359 354 351 352 352 351 351 353 354 354 351 349 349 350 350 351 351 352 352 352 353 353 354 354 354 354 353 354 353 353 353 353 353 354 353 353 353 353 353 354 353 353 353 353 354 353 354 353 353 353 353 353 353
318 319 324 335 339 332 327 325 321 321 322 322 326 335 334 327 328 331 332 334 335 340 347 348 350 354 354 352 353 349 347 350 353 358 364 362 355 354 353 353 355 354 353 352 350 350 349 349 350 350 351 352 352 353 354 354 354 354 354 355 354 354 355 354 354 354 354 354 354 354 354 354 354 354 353 354 353 354 354 354 353 354 353 354 354 353 353
319 319 322 329 334 332 329 327 321 318 320 320 323 334 336 327 325 328 331 333 331 335 343 347 353 358 356 354 353 349 346 348 350 354 359 360 359 357 353 351 350 348 347 348 349 350 350 350 350 350 351 352 352 353 353 354 355 355 355 356 356 355 355 355 355 355 354 355 355 355 355 354 354 354 354 354 354 354 354 354 354 354 354 353 353 353 353
318 319 323 329 337 336 330 324 319 316 320 320 320 329 335 330 326 326 329 330 329 330 337 342 351 359 359 356 355 349 346 347 348 351 355 356 358 359 356 351 346 345 347 349 350 350 349 350 350 350 351 352 353 353 354 354 355 356 356 356 356 356 356 356 356 356 355 355 356 355 355 355 355 355 355 355 355 354 354 354 354 354 354 354 354 354 353
315 318 323 330 335 333 324 319 317 318 321 321 323 332 336 330 326 326 327 327 325 326 331 335 343 354 359 357 353 348 346 347 347 349 352 353 355 356 355 354 351 349 349 350 350 351 350 349 350 350 351 352 353 353 354 355 355 356 356 356 356 357 357 357 357 356 356 357 356 356 356 356 356 356 356 356 356 355 355 355 355 355 355 354 354 354 354
315 317 322 326 328 325 319 317 318 319 320 322 329 339 337 329 326 326 325 324 323 323 326 330 335 344 349 350 347 345 345 345 345 347 350 352 354 354 354 355 355 354 354 353 353 353 352 351 350 351 351 352 353 354 355 355 356 356 356 357 356 358 357 358 358 357 357 358 357 357 357 357 356 356 356 356 356 356 356 356 355 355 355 355 355 354 354
318 319 320 323 325 321 318 319 319 319 322 327 333 336 331 326 326 326 324 323 322 322 324 326 329 334 338 340 341 341 340 341 343 345 346 349 351 353 353 354 355 356 356 357 357 357 357 355 351 350 351 352 353 355 354 355 356 356 357 357 357 357 358 358 359 359 359 358 358 358 358 358 358 357 357 357 357 357 357 357 356 356 356 356 356 355 355
321 322 322 325 325 319 317 319 319 319 325 330 330 327 325 323 324 324 324 323 321 321 322 324 326 329 330 332 334 334 335 338 340 340 343 346 348 350 351 352 352 353 354 355 356 358 360 360 355 351 352 354 355 356 355 355 357 357 357 357 357 358 359 358 359 359 359 359 359 359 359 359 359 359 358 358 358 358 357 357 357 357 356 356 356 356 356
321 323 324 326 324 318 317 318 318 319 321 322 320 320 319 319 319 320 323 323 321 320 321 323 326 327 325 326 328 327 330 335 337 338 341 343 345 347 349 349 349 349 350 351 352 355 358 361 359 356 357 358 358 358 358 359 360 360 359 359 358 358 358 358 359 360 360 361 360 360 361 360 360 359 359 359 358 359 358 358 357 357 357 357 357 356 356
318 321 321 321 319 316 316 318 318 317 317 316 315 316 315 315 315 317 319 321 321 320 319 322 326 326 323 323 323 323 326 330 334 337 338 340 343 345 347 348 348 347 347 348 349 351 354 358 359 359 359 360 358 358 360 362 363 363 363 362 362 361 359 359 359 359 361 361 361 361 361 361 361 361 361 360 360 359 359 358 358 358 358 357 357 357 356
315 319 319 317 315 315 316 317 317 315 314 313 313 314 314 313 314 316 316 317 319 320 319 320 324 325 323 321 320 321 324 327 331 335 336 338 340 343 344 347 347 346 347 348 348 349 352 354 357 359 359 359 358 357 359 361 362 363 364 364 365 366 364 362 360 359 359 360 362 362 362 362 362 362 362 361 361 360 360 359 358 358 358 357 357 357 356
313 317 317 314 312 312 313 315 317 315 312 311 312 313 314 313 313 315 315 315 317 319 319 320 322 323 323 323 320 319 321 324 328 332 334 335 338 341 343 346 346 345 347 347 348 348 350 352 355 357 358 359 358 358 358 359 360 361 362 362 363 365 365 367 365 363 360 359 360 362 363 363 363 363 362 362 361 360 360 360 359 359 358 358 357 357 356
314 318 316 311 310 310 311 314 316 315 313 312 311 312 313 313 313 314 314 314 316 318 319 320 321 320 320 322 321 318 319 323 326 329 332 334 335 338 341 344 346 345 345 346 346 346 347 349 352 355 357 357 358 358 358 358 358 359 359 360 362 363 364 366 367 366 364 361 359 360 360 361 362 363 363 363 362 361 360 360 359 359 358 357 357 357 356
313 314 311 308 309 312 314 315 316 315 313 312 311 311 311 312 312 312 313 314 315 317 318 320 321 318 317 320 322 319 319 322 325 328 332 333 333 336 339 343 345 345 344 344 345 344 345 348 350 353 355 355 356 357 357 358 359 360 360 359 362 363 365 365 367 367 365 362 360 358 359 360 362 362 362 362 362 361 361 360 360 359 359 358 358 357 358
311 311 309 308 310 313 315 314 313 312 312 311 311 310 310 310 310 311 313 313 314 315 317 319 320 319 317 318 321 320 319 320 323 326 331 333 332 334 337 340 344 345 344 343 344 343 344 347 351 353 354 355 356 357 357 359 360 361 361 362 363 364 364 367 368 365 362 362 360 359 358 359 358 359 360 361 361 362 361 361 361 360 360 360 359 359 359
310 310 308 308 309 311 311 310 309 310 310 310 310 310 309 309 310 311 312 312 313 314 317 319 320 320 318 317 319 321 321 320 320 324 330 332 332 332 335 339 342 345 344 343 344 343 344 348 352 353 354 356 357 358 359 360 361 361 362 363 363 364 366 367 366 364 363 362 361 359 357 356 354 354 355 357 360 361 361 361 361 361 361 361 361 361 360
310 309 308 307 308 308 308 308 308 309 310 310 309 309 310 310 310 311 312 312 312 314 317 319 318 318 318 317 317 320 322 321 318 321 328 332 332 332 334 337 340 342 343 343 343 343 344 348 351 353 354 355 357 357 358 358 359 360 362 362 362 363 366 367 367 365 363 362 359 357 356 355 355 353 353 354 357 360 360 361 361 362 362 362 362 362 362
309 308 307 307 308 308 307 307 307 307 309 310 310 310 310 310 310 311 312 312 312 313 316 318 317 316 318 317 316 320 323 320 318 320 326 330 332 332 333 335 337 339 342 343 342 342 345 348 351 352 353 354 355 356 356 356 357 358 360 360 360 361 364 367 367 365 363 359 356 354 353 353 355 355 354 352 350 352 357 360 361 362 363 363 364 364 364
309 308 308 308 308 308 307 307 307 307 308 309 310 311 311 312 312 312 312 312 312 313 316 318 316 315 316 317 316 318 320 319 319 321 324 327 330 331 332 334 337 338 341 343 343 343 344 347 349 350 351 352 353 354 354 355 356 357 356 356 357 360 364 365 364 363 360 357 354 353 352 352 354 355 355 350 345 342 346 353 357 361 363 364 364 365 364
308 308 308 308 308 307 307 308 308 308 308 309 310 311 312 312 313 313 313 313 314 314 316 318 316 315 316 317 317 318 319 319 320 320 320 322 326 328 330 333 336 338 341 344 344 343 344 346 347 348 349 350 351 352 352 353 354 354 354 355 354 357 362 364 362 359 356 353 352 351 351 352 353 351 351 349 345 341 340 343 345 348 351 354 357 359 359
307 307 307 308 308 307 307 307 308 307 308 309 310 311 311 311 312 313 313 313 314 314 315 316 315 315 316 316 317 318 318 318 319 319 318 319 323 326 329 332 336 338 341 342 343 343 343 343 345 347 348 348 349 350 350 351 352 353 353 353 353 354 358 362 361 357 354 351 349 348 348 348 348 346 345 344 343 341 339 338 335 334 335 339 342 344 344
307 306 307 308 308 307 306 307 307 307 308 309 310 312 312 312 311 312 312 312 312 313 313 313 314 315 315 315 316 317 317 317 317 317 317 318 321 324 329 333 336 338 340 340 341 341 342 342 343 345 346 347 347 348 348 349 350 351 352 352 352 353 355 358 357 354 352 350 349 347 346 345 344 343 342 341 340 339 337 334 332 329 329 331 334 335 336
306 306 306 307 307 306 306 306 307 307 308 309 310 311 313 313 312 312 312 311 311 312 313 313 313 314 314 315 315 317 318 318 317 316 316 318 320 324 330 333 336 339 340 339 339 341 342 342 342 342 344 346 346 346 347 347 347 349 350 351 351 351 352 353 353 352 350 348 346 346 345 343 342 340 339 339 338 336 334 333 332 331 330 331 332 333 334
306 306 306 306 305 305 305 306 306 306 307 307 308 309 311 312 312 312 312 311 311 311 312 312 312 313 314 315 316 317 319 318 315 315 316 318 320 325 331 334 336 338 339 339 338 339 340 341 341 341 343 344 345 345 345 346 346 347 348 349 349 350 350 350 350 349 347 344 343 343 342 340 339 339 337 336 335 334 334 333 332 332 332 332 333 332 333
306 305 306 306 305 305 305 305 305 306 306 307 307 308 309 311 312 312 312 311 311 311 311 311 312 313 314 316 317 317 318 317 315 315 316 316 319 326 332 334 334 336 337 337 337 338 339 340 341 341 341 343 344 344 344 344 345 345 345 346 347 347 347 347 347 345 343 342 342 341 339 338 337 336 336 335 334 332 331 330 330 329 330 331 332 332 333
305 305 305 305 305 305 305 305 305 305 305 306 307 308 309 310 312 313 312 311 311 310 310 311 312 313 313 315 316 317 318 318 317 316 316 315 318 325 331 333 333 334 335 335 335 336 337 339 341 341 341 342 343 343 343 343 343 343 343 343 344 344 344 344 343 341 339 339 339 338 337 337 336 335 334 333 331 330 329 329 329 328 328 329 330 331 333
306 306 306 306 305 305 305 305 304 305 305 305 306 308 308 310 312 313 313 312 312 311 310 310 311 312 312 314 316 317 318 318 318 319 319 319 320 324 330 332 332 332 333 333 333 334 335 337 339 340 340 341 341 342 342 342 342 341 341 341 342 341 341 341 340 339 337 336 336 336 336 335 334 333 331 330 329 328 327 327 326 326 326 326 327 329 332
306 306 306 305 305 305 305 305 304 304 304 305 306 307 309 312 313 314 313 313 312 311 311 311 311 311 312 313 315 316 318 319 321 323 324 324 324 327 329 330 330 331 331 330 331 331 333 335 338 339 340 340 341 341 340 341 341 340 340 340 340 338 337 336 335 335 334 332 332 332 332 331 330 330 328 328 327 326 325 324 324 323 322 322 323 325 328
305 305 305 305 305 305 305 304 304 304 304 304 305 306 309 313 315 315 314 313 313 311 311 311 311 312 311 313 314 316 318 320 322 323 324 325 327 329 329 328 328 329 329 330 330 330 331 334 337 338 338 338 339 339 339 339 339 339 338 338 337 335 333 331 331 330 329 329 329 328 327 327 326 326 326 325 324 324 323 322 321 320 320 320 320 322 324
305 305 305 305 305 305 305 304 304 304 303 304 305 306 308 312 314 315 314 314 313 312 312 311 311 312 312 313 313 315 318 321 323 324 325 326 327 327 326 327 326 326 327 329 329 330 331 334 336 337 337 337 338 337 336 337 337 337 336 336 335 332 330 328 327 327 326 326 325 325 324 324 323 322 323 322 321 321 320 319 319 318 318 317 318 319 321
305 305 305 305 304 304 305 304 304 304 303 303 304 305 307 309 312 314 314 313 312 313 313 312 312 312 313 314 315 317 319 321 323 323 324 324 324 324 324 325 324 324 325 326 328 330 332 335 336 335 335 335 335 335 334 334 335 334 334 333 332 329 327 326 324 323 323 322 322 321 321 321 320 319 319 319 319 318 317 317 316 316 315 315 315 316 317
305 304 305 305 304 304 304 304 304 303 303 303 304 304 305 307 309 311 313 313 314 313 313 312 313 314 315 317 318 318 319 319 320 320 321 321 322 322 322 322 322 322 321 323 325 328 333 335 335 333 333 333 332 332 332 332 333 333 332 331 329 327 325 323 321 320 320 319 319 319 318 318 317 316 316 316 315 315 314 314 313 312 312 312 312 312 312
304 304 304 304 304 304 304 304 303 303 303 303 303 303 304 305 306 308 310 312 313 315 315 315 316 317 318 317 317 316 316 317 318 319 319 319 320 320 319 319 319 320 320 321 323 327 332 334 333 332 331 330 329 329 329 330 331 331 329 328 326 324 322 321 319 318 317 316 316 315 315 314 314 313 313 313 313 312 312 312 311 310 309 309 309 309 308
304 304 304 303 303 303 303 304 303 303 303 303 303 302 302 303 304 305 307 308 310 313 315 316 317 316 315 315 315 315 315 316 317 317 318 318 318 318 318 318 318 319 319 321 323 325 329 331 331 330 329 327 326 325 326 327 328 328 326 324 323 322 320 319 317 316 315 314 314 313 312 311 311 310 309 309 309 309 309 309 308 308 307 307 306 306 306
305 304 304 303 303 303 303 303 303 303 303 303 302 302 302 302 303 304 305 306 307 309 311 313 314 314 313 313 313 313 313 314 315 316 316 317 317 317 317 317 317 318 319 320 322 324 326 327 328 327 326 325 324 323 322 323 324 323 322 321 320 319 317 316 315 314 312 311 311 310 309 308 308 307 307 307 306 306 306 306 306 306 305 305 304 304 304
305 305 304 303 303 303 302 303 303 303 303 302 302 301 301 301 302 303 303 304 305 306 307 309 311 311 311 311 311 311 311 312 313 313 313 314 315 315 315 315 315 317 317 318 320 322 323 323 323 323 322 322 321 320 319 319 320 319 318 317 317 316 315 313 312 311 310 309 308 308 307 307 306 306 305 304 304 304 304 304 303 303 303 303 302 302 302
304 304 304 304 303 303 302 302 303 303 302 302 302 301 301 301 301 302 302 303 304 304 305 306 307 308 308 309 309 308 309 310 311 312 312 312 312 312 313 313 314 315 316 316 318 319 319 319 319 319 318 318 317 316 316 315 315 314 314 313 312 312 311 310 310 309 309 308 307 306 306 305 304 303 303 302 302 301 301 301 301 301 301 301 301 301 300
304 304 304 304 304 303 303 302 303 303 302 302 301 301 301 301 301 301 301 301 302 303 303 304 305 305 306 307 307 307 307 308 309 310 312 311 311 311 311 311 312 313 314 314 315 316 316 316 316 316 316 316 316 315 315 313 312 311 310 309 309 309 309 308 308 308 307 306 305 304 304 303 302 301 301 300 299 298 297 297 297 298 298 298 298 297 297
304 305 305 304 304 304 303 303 302 303 302 302 301 301 301 300 300 301 301 301 301 301 301 302 303 303 304 305 306 306 305 306 306 307 309 310 311 311 310 310 310 311 311 312 313 313 314 314 313 313 313 313 313 313 312 311 310 309 309 308 308 308 307 307 306 305 305 304 303 302 301 300 299 299 298 298 297 297 296 296 295 295 295 295 295 294 294
303 305 305 304 303 304 303 303 302 302 302 302 302 301 301 300 300 300 300 300 300 300 300 300 301 302 302 303 304 304 304 304 305 305 306 307 308 309 309 309 309 309 309 310 310 310 311 311 310 310 310 310 310 310 309 309 308 308 308 307 307 306 306 305 305 304 304 304 303 302 301 300 299 298 298 298 298 297 296 295 295 294 294 294 294 294 294
301 302 304 304 304 303 303 303 302 302 302 302 302 302 301 301 300 300 300 300 300 300 300 300 300 300 301 302 302 303 304 304 304 304 304 304 305 306 306 307 307 307 307 307 308 308 308 308 308 308 308 308 308 307 307 307 307 307 307 307 306 306 305 305 305 304 304 303 303 302 301 299 298 297 296 295 295 295 294 293 293 293 293 293 293 293 294
300 300 302 304 304 304 303 303 303 303 303 303 303 303 302 302 301 301 300 300 300 300 300 300 299 300 300 301 301 302 303 304 304 304 303 303 303 304 304 305 305 305 305 305 306 306 306 306 306 306 306 306 306 306 306 306 306 306 306 306 305 305 304 304 303 302 302 302 301 300 300 298 297 296 295 294 293 293 293 293 293 293 293 293 292 293 293
300 300 300 302 303 303 303 304 304 304 303 303 303 303 303 302 302 302 302 301 301 300 300 300 300 299 299 300 300 301 301 302 303 303 303 303 303 303 303 303 303 303 304 304 304 304 304 304 304 304 304 304 304 304 305 305 305 305 305 304 304 303 303 302 302 301 301 300 300 299 298 297 296 296 295 295 295 295 295 295 295 294 294 293 293 292 293
300 299 300 300 301 301 303 303 304 304 303 303 303 303 302 303 303 303 302 302 302 301 301 302 301 301 299 299 299 300 300 301 301 301 301 301 302 302 302 302 302 302 302 303 303 303 303 303 303 303 303 303 303 303 303 303 303 303 303 303 303 302 302 302 301 300 300 300 299 299 299 298 298 297 297 296 296 296 295 295 295 294 294 293 293 293 293
299 299 299 299 300 301 302 303 303 303 302 302 302 302 302 302 303 303 302 302 302 302 302 302 303 302 301 300 300 300 300 300 301 300 300 300 300 300 301 301 301 301 301 301 301 302 302 302 302 302 302 302 302 302 302 301 301 301 301 301 302 301 301 301 300 300 300 300 299 299 299 298 297 297 296 296 295 295 295 294 294 294 293 293 293 293 293
299 299 299 300 300 301 302 303 303 304 303 301 301 301 302 301 301 302 302 301 301 301 302 302 302 302 301 301 301 300 300 300 300 300 300 300 300 300 299 300 300 300 301 301 301 301 301 301 301 301 301 300 300 300 300 300 300 300 300 300 300 300 300 300 299 299 299 298 298 297 297 296 296 296 296 296 296 295 295 295 295 294 294 293 293 292 292
Wind_Speed
10 10 11 12 9 9 10 10 12 15 14 11 9 9 8 4 6 9 6 5 9 11 6 4 2 5 7 8 9 8 8 9 11 11 12 14 16 15 14 14 16 17 17 17 17 18 19 23 26 27 28 30 31 32 33 34 35 35 36 36 36 36 35 36 37 37 37 37 37 37 37 37 37 37 36 36 36 35 34 34 34 34 34 34 33 33 34
10 11 12 12 9 7 8 9 10 11 13 13 11 11 10 10 10 8 6 9 10 4 5 7 6 5 5 6 5 6 8 10 11 13 14 15 16 15 15 16 16 17 18 18 18 17 17 20 25 26 27 29 31 32 33 34 35 36 36 36 36 35 35 36 37 37 36 36 36 36 37 37 37 37 36 35 35 34 35 35 35 34 34 34 34 34 34
8 9 8 7 7 7 7 6 6 9 11 8 6 7 6 6 8 9 8 10 8 4 6 6 6 5 4 5 8 8 8 9 11 13 14 14 15 15 15 17 16 17 17 16 16 17 17 21 26 28 28 30 32 31 32 34 35 35 36 36 35 36 36 37 36 36 35 35 35 36 36 36 36 36 35 35 34 35 35 35 35 34 34 34 35 35 34
5 5 4 4 6 6 6 2 8 12 11 8 3 1 4 3 4 5 6 6 5 6 8 6 6 8 10 11 12 11 10 10 9 11 11 13 15 15 16 16 15 15 15 16 17 17 18 22 26 28 28 29 29 31 33 34 34 34 35 35 35 35 36 36 35 35 35 34 34 35 35 36 36 36 35 34 35 35 35 35 35 35 35 35 36 35 34
4 5 4 7 5 4 4 1 6 8 8 8 6 6 10 8 3 2 2 4 5 7 7 7 9 11 12 11 10 10 11 13 10 8 9 10 12 15 16 16 15 16 15 16 18 19 20 25 30 31 32 32 32 33 34 33 33 33 33 33 33 34 34 34 34 34 34 34 34 35 36 36 36 35 35 35 35 35 35 36 35 35 36 36 36 36 35
4 6 6 5 4 4 4 3 5 7 6 8 8 8 12 13 8 5 4 5 8 9 7 6 7 8 10 9 9 10 11 12 11 8 7 8 8 9 11 13 14 15 14 14 16 20 25 28 30 32 32 30 29 29 30 31 31 32 32 31 31 32 33 33 34 34 34 35 35 36 36 36 36 36 36 36 36 36 35 35 34 35 36 36 36 36 36
4 6 4 3 6 4 5 7 8 9 4 6 8 7 14 18 16 13 12 11 12 12 8 7 5 3 5 7 10 14 14 12 12 9 5 6 7 7 7 10 12 12 13 12 13 17 23 25 26 27 27 26 25 27 29 31 31 31 31 31 31 33 33 34 34 34 35 35 36 36 36 36 35 36 36 36 36 36 35 35 35 36 36 36 36 36 37
2 3 2 4 4 2 4 5 9 10 5 7 10 7 14 19 17 15 15 13 14 13 10 8 5 4 2 5 10 15 17 15 13 11 7 2 6 8 8 9 10 11 12 14 16 19 22 25 26 26 26 26 27 28 30 30 30 31 31 31 32 33 33 33 34 35 35 35 35 35 35 35 34 34 35 35 36 35 35 34 35 35 35 35 36 37 36
2 2 3 2 2 2 3 3 5 7 5 8 8 3 8 14 15 14 14 14 15 14 12 11 7 4 2 6 11 15 18 18 15 12 10 6 2 6 7 7 8 10 14 17 19 22 24 26 27 27 27 28 28 27 28 28 29 30 30 31 32 32 33 33 35 36 36 36 36 35 34 33 33 34 35 36 36 36 34 34 34 35 35 35 36 36 36
1 2 3 1 2 3 1 2 6 8 8 9 8 3 2 10 15 16 14 14 16 15 14 15 11 4 4 8 8 12 17 17 16 13 12 10 7 5 7 10 12 15 18 21 22 25 25 24 25 28 28 28 28 26 26 27 28 28 29 30 31 31 33 34 35 36 37 37 37 35 34 34 35 35 36 36 37 36 35 35 36 37 36 35 36 36 36
2 2 2 1 2 3 1 8 12 13 11 8 5 4 2 10 15 16 15 15 16 15 15 16 11 5 6 5 6 11 14 14 13 12 12 12 11 9 8 9 12 17 22 24 24 25 25 24 26 29 30 29 27 25 25 27 27 26 28 30 31 32 34 35 36 37 37 37 37 35 35 36 37 37 37 37 37 35 35 36 36 35 34 34 34 35 36
4 4 2 2 1 1 6 12 14 15 12 5 3 3 3 9 12 13 14 15 16 15 14 13 10 8 6 4 7 10 12 11 12 12 12 12 12 11 12 12 12 16 21 22 21 21 23 26 29 32 32 30 27 25 25 26 25 26 29 32 33 34 35 34 35 35 36 36 36 36 36 37 38 38 37 36 35 33 34 35 34 33 32 33 33 35 35
5 5 2 1 0 2 9 13 14 15 10 2 3 2 2 6 10 11 12 13 14 14 13 10 8 7 6 6 9 10 10 13 14 13 13 15 15 15 15 16 15 16 17 17 17 16 19 25 30 32 32 28 24 24 25 24 25 28 32 33 33 34 34 32 33 34 35 36 37 37 38 38 37 36 36 35 33 33 33 34 32 31 31 31 32 33 33
3 2 1 0 2 3 12 13 12 11 5 3 3 4 3 7 11 11 11 12 13 14 13 9 7 8 9 9 9 11 13 14 13 14 14 16 17 17 18 19 18 16 16 17 17 15 15 21 27 30 29 25 21 22 22 21 24 27 29 31 32 33 33 32 32 33 34 35 36 37 38 37 35 34 35 34 34 33 32 31 30 31 31 30 30 31 31
2 0 1 1 1 5 14 13 8 8 7 3 3 5 6 9 12 12 11 11 11 13 13 10 9 10 11 12 13 14 14 14 13 14 16 15 15 14 15 17 17 15 14 15 17 17 16 19 23 27 27 22 20 20 18 17 20 22 23 26 28 29 30 30 31 32 34 35 36 36 36 36 35 35 35 33 32 32 31 30 29 29 30 29 28 28 28
2 2 3 3 2 5 11 9 5 6 6 4 5 7 7 8 9 10 10 11 12 13 13 12 11 11 13 15 16 14 14 15 13 13 15 16 15 13 14 16 18 17 14 14 17 19 19 21 22 25 27 25 22 20 18 17 18 18 18 19 21 24 28 30 32 32 34 35 37 37 37 36 35 34 33 31 31 31 31 30 28 27 27 27 26 25 26
3 2 3 3 2 4 7 5 4 5 6 7 8 8 6 7 8 8 9 12 14 14 13 13 12 11 13 14 14 13 12 12 12 13 14 15 15 15 15 17 18 17 15 15 17 18 20 22 23 24 26 26 22 18 16 17 17 16 15 15 14 15 19 25 30 33 33 34 35 36 36 35 34 33 32 30 30 30 30 29 28 26 26 25 25 25 24
4 0 4 4 5 7 7 4 2 5 6 7 9 9 7 7 8 8 9 11 13 13 13 13 12 11 12 13 13 13 12 11 12 12 13 14 16 17 16 16 16 16 16 16 16 17 18 20 22 23 24 24 22 18 16 15 15 13 12 11 10 9 9 11 17 24 29 31 32 32 32 31 32 33 32 31 30 29 28 28 27 26 25 24 23 23 23
5 1 5 8 11 11 8 3 2 5 6 7 8 8 7 7 8 9 9 11 13 12 11 11 12 12 12 13 14 14 12 11 11 11 11 13 14 15 16 16 16 15 15 14 14 15 15 16 19 22 22 22 20 18 16 14 12 10 10 9 7 7 5 4 7 13 20 25 27 27 27 26 28 29 30 30 28 27 26 26 25 24 23 22 22 22 22
5 1 6 12 12 8 2 3 3 5 7 10 11 10 9 8 8 9 9 10 10 11 11 10 11 13 12 11 13 14 12 10 10 9 9 11 13 16 18 18 16 15 13 12 12 12 12 13 16 19 19 18 17 16 15 13 11 9 8 7 6 5 4 3 5 9 13 17 21 22 21 22 23 23 24 25 26 26 27 27 25 24 24 23 24 24 24
4 2 8 14 11 6 7 7 7 9 9 11 13 14 13 12 10 9 9 9 9 10 11 10 9 12 13 10 11 13 13 10 8 8 9 11 13 16 18 18 15 13 12 11 11 11 10 13 17 17 17 16 15 15 14 12 10 10 9 7 6 4 2 2 4 7 10 13 16 18 18 18 18 17 17 20 22 23 25 26 26 26 25 25 26 26 25
4 5 10 12 8 5 6 9 11 12 11 12 13 15 15 13 11 9 9 10 10 9 10 9 7 9 12 10 9 10 13 12 8 7 9 12 14 16 18 18 17 14 11 10 11 10 10 14 17 18 17 16 15 15 14 12 11 10 9 9 8 6 4 4 5 9 12 14 17 18 19 18 17 14 12 13 16 18 20 21 22 23 24 24 25 25 23
7 9 11 10 7 8 10 11 11 12 11 11 13 15 15 14 12 9 8 9 10 9 10 10 7 7 9 11 8 6 11 16 15 10 9 11 13 15 16 16 16 15 13 10 10 10 10 14 17 17 17 17 16 15 14 12 11 10 9 10 10 8 7 6 8 12 15 17 18 20 20 20 19 17 14 11 10 12 13 14 16 18 19 19 19 19 19
9 10 11 10 9 10 12 13 14 13 10 10 12 14 14 13 12 10 9 9 9 9 9 8 9 8 9 11 9 5 7 17 21 16 12 12 13 16 16 15 14 15 13 9 7 8 10 13 15 16 16 16 15 14 13 11 11 10 11 12 11 10 9 9 11 13 16 18 19 19 20 20 20 20 19 17 14 10 8 9 11 13 14 14 13 13 14
9 9 11 11 10 11 11 11 11 11 11 11 12 12 13 14 12 10 9 8 8 10 9 6 8 12 10 10 11 9 7 14 23 21 14 13 15 17 18 18 16 15 13 10 5 7 10 12 14 14 15 14 14 13 12 11 10 11 12 13 13 11 10 11 12 13 15 17 18 20 21 22 21 21 20 20 19 18 15 11 10 9 10 10 11 12 12
9 9 11 11 9 8 8 8 8 10 12 13 12 12 13 15 15 14 12 9 10 12 10 5 7 13 14 12 13 12 10 14 22 23 16 14 15 16 17 19 19 17 15 10 5 6 8 10 11 12 12 11 11 11 11 10 10 11 13 14 14 13 11 11 12 12 13 15 16 18 20 20 20 19 19 20 22 22 19 17 16 15 14 13 12 12 13
9 10 12 11 9 8 10 10 10 12 13 13 13 13 14 16 17 16 14 12 12 13 11 8 8 12 15 15 15 14 13 14 18 20 16 14 15 17 19 21 21 20 17 11 6 5 6 7 9 9 9 8 8 8 8 8 9 11 12 13 13 13 12 11 12 12 12 13 15 16 17 17 17 18 18 20 21 20 19 20 22 23 22 22 20 19 19
11 11 11 10 10 12 13 13 12 12 13 13 14 14 14 14 14 13 12 12 11 10 10 10 9 9 11 14 14 12 11 12 13 15 16 17 18 21 23 23 22 20 16 10 7 5 4 4 5 6 7 6 6 6 6 7 9 11 12 12 13 13 13 13 13 13 14 14 15 16 16 16 17 18 19 20 20 20 21 25 28 28 27 27 26 25 25
12 13 11 10 12 14 14 12 11 11 12 13 14 14 13 11 10 11 12 11 8 7 9 10 11 10 12 14 14 9 6 7 11 14 17 20 23 24 24 24 23 20 13 8 6 5 3 1 3 5 5 5 5 5 6 7 9 10 12 12 13 13 14 15 15 16 17 17 17 17 18 18 18 19 20 20 20 21 22 22 24 25 25 26 27 26 24
11 13 12 11 12 14 14 12 11 11 12 12 13 13 13 11 10 11 13 11 8 8 10 10 10 12 13 14 14 12 8 8 13 17 20 22 23 23 22 23 21 17 12 8 7 6 3 0 2 3 4 5 6 6 6 7 9 11 12 13 13 14 15 16 17 18 20 21 20 20 20 20 21 22 22 22 21 23 23 21 20 19 21 23 24 24 22
13 14 14 12 13 14 14 12 11 11 11 12 12 13 13 12 11 12 13 11 8 8 10 10 10 11 11 13 15 15 14 13 14 17 20 23 24 21 19 17 15 11 10 10 9 5 2 1 3 3 3 5 6 6 7 8 10 12 13 14 15 16 17 18 19 21 22 23 23 23 24 24 24 25 26 25 24 23 24 25 23 21 22 23 23 22 20
14 13 12 12 12 13 14 13 12 12 12 12 13 12 12 11 11 12 12 10 8 8 9 9 10 11 12 14 16 16 15 15 15 14 15 21 24 21 16 12 11 11 11 11 9 5 2 2 3 4 4 6 6 6 7 8 9 12 14 15 16 17 17 19 21 21 21 21 22 23 23 23 25 26 26 26 25 24 25 27 28 26 25 24 22 19 18
14 13 12 13 14 14 15 14 14 14 14 14 13 12 11 10 11 11 11 9 8 7 7 9 12 13 13 15 17 17 15 14 12 9 10 15 21 20 14 10 9 9 9 9 8 5 3 2 4 5 6 6 6 6 7 8 9 12 14 15 16 18 18 19 21 22 21 20 20 21 22 23 25 26 26 26 26 26 26 28 28 27 26 25 23 20 20
13 12 12 14 13 14 15 15 14 14 14 14 13 12 11 9 8 9 9 8 8 8 8 10 14 14 13 13 14 14 12 8 6 6 9 13 16 16 13 9 6 6 6 7 6 5 4 4 5 7 8 7 7 7 8 9 10 13 15 16 17 19 19 19 20 22 22 21 20 22 24 24 24 23 24 25 28 28 27 26 25 26 26 26 24 22 22
13 12 12 13 13 13 14 14 14 14 14 14 13 13 12 9 6 6 8 8 9 11 13 13 14 14 12 10 9 9 9 9 8 10 13 13 13 12 10 8 6 5 6 6 6 6 5 4 7 9 9 9 9 10 10 11 13 15 16 17 18 19 19 19 20 22 23 23 24 24 24 23 22 22 24 26 27 27 26 24 23 24 26 25 23 22 22
14 12 11 12 14 16 16 15 15 15 14 12 12 12 13 14 11 5 8 10 11 13 14 14 12 11 9 8 8 8 9 10 12 12 12 12 10 9 8 7 5 6 7 7 7 6 5 4 8 11 12 12 12 12 12 13 15 17 18 18 19 21 21 21 22 22 23 23 23 22 23 23 23 24 28 29 28 27 26 24 23 23 23 22 21 22 22
14 13 11 12 14 16 16 16 17 18 17 15 15 15 15 18 18 13 6 8 11 12 12 11 10 8 6 7 8 7 6 5 5 7 8 8 6 5 5 4 4 5 6 7 7 6 3 5 10 13 14 15 16 15 15 16 17 18 19 20 21 22 23 23 23 22 22 22 21 21 24 27 26 25 26 26 24 23 22 22 22 22 22 20 20 21 22
11 12 12 14 15 16 17 18 20 22 22 20 20 21 20 20 21 19 15 11 7 8 10 9 7 5 4 3 3 3 4 4 3 3 3 4 4 3 2 1 2 4 5 6 7 6 4 7 11 13 14 16 17 18 18 18 19 20 21 22 23 25 25 25 25 25 25 25 24 25 27 29 29 26 24 21 20 21 21 20 21 22 22 22 22 21 20
7 9 12 14 15 16 18 19 21 23 23 21 20 23 26 26 23 22 21 21 17 8 2 6 6 6 7 9 9 8 8 8 6 4 3 1 2 3 4 4 3 2 4 6 6 5 8 12 14 15 15 16 17 19 21 21 22 23 23 24 26 27 27 27 28 27 25 24 25 26 27 26 26 24 21 19 20 21 20 20 21 22 22 22 23 21 19
5 9 12 14 14 16 17 18 20 23 25 23 22 24 27 27 25 23 23 24 24 19 12 11 11 10 10 10 9 9 10 9 7 5 5 4 3 4 5 5 5 3 1 3 4 6 11 15 18 18 17 17 18 20 22 23 24 25 26 27 28 28 28 28 28 28 26 26 26 27 27 26 26 25 24 24 24 23 22 22 23 23 22 22 22 20 18
7 11 13 14 14 16 17 17 19 21 24 25 25 26 29 30 28 24 22 23 25 26 22 18 15 12 12 13 14 14 14 13 11 9 7 5 4 3 3 4 5 5 3 2 5 8 12 16 18 19 19 18 18 20 22 24 25 27 28 28 28 28 27 27 27 27 27 28 29 29 29 29 28 28 29 29 29 27 26 26 26 24 24 24 23 22 21
9 12 13 13 14 16 17 17 18 19 21 24 26 26 29 32 31 27 25 26 28 29 26 23 20 18 16 17 19 19 19 17 16 14 14 14 11 7 5 6 7 5 4 6 9 11 13 15 17 19 19 20 20 21 23 25 27 28 28 29 29 28 28 28 29 29 29 31 31 31 31 32 31 31 31 31 29 29 29 29 27 26 26 26 26 26 25
10 11 11 11 13 15 16 17 16 16 18 21 24 25 26 28 30 31 31 31 30 29 27 26 24 21 20 21 22 22 21 20 17 15 15 19 20 17 13 11 10 7 5 9 14 16 16 17 19 20 21 23 24 25 25 26 26 27 28 28 29 30 31 31 31 31 31 32 32 31 31 32 33 32 31 30 30 30 31 31 29 28 28 28 27 27 27
8 10 10 11 12 14 15 15 15 15 15 17 21 24 25 25 27 30 31 30 29 28 28 28 27 24 23 23 22 21 21 22 21 17 14 15 19 21 21 18 15 11 9 11 16 19 19 19 20 22 24 26 28 29 29 28 27 27 28 28 30 33 34 33 32 33 32 33 33 33 33 34 34 33 31 30 30 32 33 32 31 30 30 29 28 27 27
7 7 9 10 12 12 13 14 14 14 14 15 19 24 26 26 26 27 28 29 29 29 29 29 29 28 26 23 21 21 23 26 26 23 17 12 12 17 22 23 21 18 15 15 18 20 21 21 22 24 26 29 30 31 31 31 30 30 31 30 30 32 33 33 34 35 35 35 35 36 36 35 35 35 34 32 32 32 32 31 31 30 30 29 28 27 27
10 8 7 8 10 12 12 14 15 16 16 16 17 20 24 26 26 27 27 27 28 29 30 30 31 31 30 27 23 22 25 29 31 31 28 22 19 21 25 26 25 23 22 21 20 20 22 25 27 28 30 31 32 32 32 32 31 31 31 30 30 32 33 34 34 35 34 33 33 34 35 35 34 34 33 32 31 30 30 30 30 29 28 27 27 26 25
14 11 8 7 9 10 12 14 16 17 16 13 11 14 20 23 25 26 28 28 28 29 31 31 31 32 32 31 29 26 23 23 26 31 33 31 29 30 31 30 27 27 28 28 27 25 23 25 29 31 33 34 34 33 33 33 32 32 31 31 31 32 32 32 31 30 30 29 30 31 33 33 33 34 34 33 33 32 31 30 29 28 27 26 25 24 23
14 13 11 8 7 8 11 13 13 13 13 12 11 13 17 19 20 22 24 26 27 27 29 30 31 31 31 31 31 30 26 21 19 23 29 31 31 31 32 32 30 30 30 30 29 29 28 27 29 31 34 35 36 35 33 33 33 32 32 31 31 30 30 30 30 29 29 29 30 31 31 32 32 33 33 33 32 31 30 29 28 26 25 24 22 21 20
13 13 14 12 9 7 7 9 10 10 11 13 15 15 15 16 17 18 19 21 22 22 23 24 26 27 28 29 29 30 30 26 22 23 27 31 31 31 32 32 32 33 32 31 29 29 29 29 30 31 32 34 34 34 34 33 33 32 31 31 31 30 30 30 30 29 29 29 28 29 29 29 29 30 30 30 30 29 28 27 25 23 22 21 20 18 17
13 13 14 14 12 8 5 5 7 9 11 12 13 13 14 14 14 14 15 17 17 17 18 19 20 21 23 24 25 25 27 27 26 26 28 29 30 31 31 32 32 33 33 32 31 30 30 30 30 31 31 31 31 31 32 33 33 33 32 31 31 30 29 29 29 28 28 27 26 26 25 25 26 27 27 28 27 26 25 24 22 20 18 17 16 15 14
13 12 12 12 13 11 6 3 3 6 9 11 11 11 11 12 12 12 13 15 15 14 15 17 18 17 18 19 20 21 22 23 24 26 27 27 27 28 30 31 32 32 33 33 32 31 30 30 30 31 31 31 31 31 31 32 33 33 32 31 31 30 29 28 28 28 27 27 26 25 24 25 26 27 27 26 25 23 22 20 19 17 16 14 13 12 11
12 13 13 13 14 15 12 8 4 3 5 7 9 8 8 10 10 10 10 12 14 14 14 14 15 15 16 16 17 17 18 19 21 22 23 24 25 26 27 28 29 30 31 31 31 31 31 31 32 32 32 31 31 30 31 31 32 32 31 31 30 30 29 28 28 28 27 27 28 27 27 26 26 25 24 23 21 20 19 18 16 15 14 13 12 11 10
Wind_Direction
261 260 265 268 264 260 260 264 271 280 289 285 260 252 252 218 215 237 226 192 231 257 293 355 312 238 241 249 248 255 259 246 239 235 221 212 209 203 192 185 182 183 183 182 181 181 180 179 180 182 184 185 186 187 189 189 191 192 192 192 195 196 198 201 204 206 207 208 210 211 212 214 215 216 217 219 220 221 222 223 226 228 230 232 233 235 237
275 267 261 254 243 243 253 256 261 276 285 274 253 247 249 248 253 255 224 215 231 267 349 334 306 273 253 256 276 300 287 262 243 234 225 212 203 195 188 185 185 185 185 182 180 178 176 176 178 179 180 183 184 186 186 188 190 191 191 191 193 195 198 203 205 206 207 208 209 210 211 213 215 216 217 218 219 220 222 224 226 228 230 232 233 235 237
281 272 250 229 225 231 241 260 297 321 320 299 249 237 256 267 266 267 255 240 246 318 340 316 316 341 4 3 352 340 312 280 251 230 218 204 193 189 188 185 185 185 183 178 174 174 176 178 178 179 181 182 183 184 185 187 189 189 189 190 193 195 199 203 205 205 206 207 208 209 211 213 214 216 217 218 219 220 222 223 225 227 228 231 233 235 236
288 261 220 255 263 226 214 296 351 346 345 1 27 39 19 344 275 294 301 268 271 316 323 327 350 13 27 20 359 347 338 319 278 233 211 195 186 185 187 186 185 182 177 172 173 176 178 179 179 181 180 179 181 183 185 186 187 187 188 190 193 196 200 202 203 204 205 206 207 209 211 212 214 216 217 217 219 221 222 223 225 226 227 229 232 234 235
277 256 277 304 287 195 199 313 7 349 342 7 28 36 22 1 331 22 328 268 290 309 317 351 17 25 28 20 3 350 342 334 309 252 212 195 191 187 185 183 180 177 174 175 177 177 177 179 182 182 179 179 183 185 184 183 183 184 187 190 192 196 199 201 202 203 204 205 207 209 211 213 214 215 216 217 219 221 222 224 225 226 227 229 232 233 234
264 283 308 296 216 177 186 142 58 8 346 6 19 36 25 12 15 22 331 307 324 319 314 345 8 26 29 20 7 359 351 344 327 286 225 196 193 191 187 183 179 177 176 177 177 177 179 181 182 180 180 181 183 181 179 179 181 184 186 188 191 195 198 200 202 203 204 205 207 210 211 212 214 215 215 217 220 221 223 224 225 226 228 230 232 233 234
272 304 312 203 178 169 155 127 48 12 1 356 355 32 35 20 14 8 351 335 330 325 318 315 306 329 18 24 18 7 359 353 341 318 268 193 172 174 184 181 175 173 171 169 171 174 176 176 174 175 177 177 174 174 176 179 181 183 185 187 191 195 198 200 201 202 203 205 208 210 211 212 213 214 216 218 220 221 223 224 225 227 229 230 232 233 235
278 310 283 184 162 82 88 88 24 8 15 352 342 24 36 19 10 6 353 337 331 327 322 320 300 261 283 26 24 8 357 352 347 340 326 255 170 162 170 175 173 170 166 165 165 166 167 167 168 171 173 172 170 173 177 179 180 182 184 188 192 196 199 200 201 202 204 205 208 210 211 211 212 214 216 218 220 221 222 224 226 229 230 231 233 234 235
231 277 291 250 146 45 23 46 10 350 334 323 321 357 38 18 9 0 346 337 338 336 333 337 322 264 294 30 19 360 353 349 344 348 352 351 104 137 140 141 140 143 148 152 154 155 159 164 167 169 170 170 170 172 175 178 179 181 184 190 194 196 199 200 202 203 205 206 208 210 210 210 212 214 216 218 220 220 221 222 225 227 229 231 233 235 236
295 291 292 305 150 165 206 316 317 310 298 294 287 257 42 17 6 355 344 340 342 345 348 342 326 303 34 30 4 346 347 346 345 353 6 14 31 77 115 127 129 131 137 144 150 154 157 162 166 167 167 168 168 170 174 177 179 181 186 193 196 197 200 202 203 204 205 207 209 209 210 210 213 215 217 219 221 220 219 221 224 226 228 231 233 235 236
313 295 258 255 166 148 6 323 309 306 308 299 260 201 55 12 359 351 348 348 348 352 353 344 340 23 54 27 347 338 337 341 350 359 10 20 28 38 61 98 126 137 142 145 151 155 157 160 164 165 166 166 167 170 174 177 179 183 189 195 198 200 203 204 205 206 207 208 209 209 210 212 214 216 218 219 221 220 219 221 225 227 228 229 232 235 236
252 246 252 307 161 110 341 324 313 310 307 287 188 157 34 2 351 347 350 353 351 352 352 352 5 35 38 356 320 319 327 347 2 8 13 22 29 36 43 59 95 125 135 140 147 153 158 162 164 165 166 167 169 172 174 176 180 186 193 198 201 204 206 207 206 207 208 209 210 210 211 214 216 217 218 219 220 219 220 222 224 226 227 228 231 234 236
242 229 225 330 107 22 338 327 320 313 296 214 112 69 18 348 342 345 353 355 351 351 358 9 16 4 339 308 299 316 349 9 8 8 16 24 31 38 43 51 68 92 107 115 123 136 152 160 164 166 168 168 170 171 172 176 184 191 196 201 204 206 208 208 207 208 209 210 211 213 214 216 217 218 219 219 219 218 219 220 222 224 226 227 230 234 236
262 221 190 266 149 19 348 335 327 330 336 114 62 28 33 360 346 345 352 355 353 352 356 7 3 333 319 320 334 358 13 13 5 6 15 21 25 32 40 46 56 71 83 89 93 103 130 152 162 166 165 162 163 167 170 177 187 192 197 201 204 207 209 209 210 209 210 212 213 214 216 216 216 217 219 219 219 219 218 219 220 223 225 226 227 232 235
324 355 58 66 119 6 352 347 348 9 29 46 354 2 19 7 353 345 345 353 356 351 348 351 347 334 336 353 4 9 11 9 6 9 14 16 17 21 28 32 41 57 71 75 76 83 104 130 147 155 152 145 144 148 152 162 174 184 194 200 204 208 210 211 212 211 212 214 215 215 217 216 215 217 218 218 218 218 217 217 218 221 223 224 225 230 233
2 33 52 55 46 351 354 1 32 48 42 25 3 7 7 0 354 347 341 344 349 348 343 340 338 340 353 4 7 4 3 3 2 6 14 16 15 16 18 22 32 47 58 65 70 76 89 106 123 135 135 129 125 128 132 139 148 157 171 184 194 203 209 212 214 214 214 216 216 217 217 215 215 216 217 216 216 216 216 215 216 218 221 221 221 225 229
354 17 78 82 51 352 350 359 43 57 42 21 12 12 6 354 350 345 338 336 339 344 343 338 339 347 354 359 3 3 358 354 356 6 13 13 11 13 16 20 29 42 53 62 67 70 79 92 105 117 123 120 116 116 124 130 132 135 143 151 164 182 198 209 214 215 216 216 216 218 218 215 214 215 214 213 213 213 213 213 213 216 218 219 219 221 225
319 187 108 68 8 343 327 317 42 52 34 14 5 1 359 350 341 337 335 330 330 336 341 341 342 345 348 352 360 5 0 353 355 2 5 7 10 12 13 16 27 42 55 61 63 64 69 81 94 102 109 111 109 110 117 121 123 128 133 136 142 150 166 194 209 214 216 217 217 218 218 215 214 214 214 212 211 212 211 210 212 214 216 217 217 219 223
327 107 71 20 340 318 298 258 94 44 16 1 356 348 340 335 331 328 326 324 324 328 336 341 339 339 346 354 358 0 1 355 351 352 356 1 5 7 8 13 24 42 53 55 56 58 60 71 86 94 98 100 101 104 107 109 113 121 125 129 139 145 152 173 198 208 215 218 219 219 218 216 214 215 214 212 211 210 208 207 209 212 214 215 215 216 221
329 314 18 360 336 324 1 91 79 27 359 345 338 331 323 318 317 314 313 317 320 321 324 333 336 336 342 354 357 354 353 350 344 343 350 357 1 4 7 12 23 39 47 51 57 60 60 70 83 90 94 97 99 100 100 102 110 117 120 127 136 144 162 183 189 198 207 214 215 215 214 213 212 212 212 211 210 210 210 209 208 208 210 212 214 215 219
318 316 355 355 351 18 50 33 354 341 337 329 323 318 313 308 305 304 305 308 310 310 313 321 334 334 334 349 2 351 339 339 342 335 336 350 1 5 5 7 18 35 44 52 61 63 66 78 84 85 87 91 95 98 98 101 108 111 113 119 125 131 146 156 168 181 189 196 200 198 194 194 195 198 203 206 207 210 214 214 212 212 213 215 218 221 221
348 343 344 346 338 325 335 333 322 314 311 310 308 304 301 299 298 298 299 299 298 299 302 309 328 333 326 336 2 351 327 323 330 331 336 349 358 3 6 8 14 25 38 53 62 61 67 78 83 83 83 85 88 90 90 91 94 99 107 110 105 103 109 124 148 165 170 176 181 180 177 175 172 170 177 192 199 204 210 213 215 217 219 222 227 228 224
320 318 323 325 313 298 299 301 297 292 291 293 292 290 289 288 288 289 288 290 292 294 296 303 318 329 319 320 340 349 321 315 318 329 349 356 354 356 4 10 8 8 17 41 56 58 67 77 81 81 81 82 83 82 81 81 82 85 94 99 93 89 99 125 153 163 164 165 168 170 170 169 165 157 147 147 166 186 197 202 207 211 216 222 227 229 226
304 308 316 315 308 299 294 291 288 286 282 277 277 277 278 278 279 280 276 275 278 279 282 295 312 318 312 310 316 329 318 311 313 323 349 4 360 357 1 7 7 0 358 10 37 58 72 79 81 81 79 78 78 76 74 75 78 81 86 91 91 92 106 133 156 164 163 161 162 162 162 162 162 158 146 129 116 120 151 181 193 200 206 209 211 213 215
307 308 311 310 302 294 288 284 280 277 273 271 268 268 270 272 274 276 274 269 267 268 268 281 303 303 300 301 307 314 312 307 309 317 338 1 3 2 0 357 355 352 345 343 17 67 77 78 79 79 78 78 79 80 77 75 78 82 85 88 91 96 112 135 151 158 159 159 159 159 158 158 158 157 151 138 121 109 108 121 142 160 173 181 188 189 189
315 312 313 310 300 294 296 296 290 284 281 274 266 263 265 268 271 274 275 271 264 262 261 258 281 292 296 299 302 304 304 307 311 316 332 355 359 359 355 347 342 344 345 347 17 60 69 76 81 81 80 84 87 88 86 81 81 83 84 85 88 92 107 130 142 147 151 154 156 156 156 156 155 152 149 145 136 124 116 111 108 110 115 123 138 149 150
328 327 326 323 321 327 329 323 312 303 297 287 275 265 261 261 265 269 271 269 263 259 256 254 265 285 296 299 299 302 307 312 316 319 329 345 350 347 344 341 340 344 347 350 7 33 54 78 88 86 87 91 93 93 89 83 82 86 86 86 87 91 102 121 132 136 140 144 145 145 145 146 147 145 141 139 136 131 127 121 112 104 103 106 113 118 121
334 332 331 329 331 331 326 320 313 306 303 299 291 281 267 258 258 261 260 259 261 260 257 255 254 264 284 290 290 296 308 315 317 318 323 332 338 339 340 342 342 342 344 351 6 19 40 83 95 96 97 95 97 102 95 82 82 87 87 87 89 92 99 111 119 124 129 133 136 137 136 136 138 138 136 136 134 128 125 122 117 111 107 106 109 112 114
336 334 331 330 330 327 323 324 325 318 311 308 305 298 283 259 247 253 255 251 252 261 261 259 255 252 259 269 273 277 295 308 306 307 314 322 329 333 337 339 338 336 335 342 1 10 7 66 105 103 107 110 115 112 95 81 84 90 92 92 94 97 102 109 115 118 120 123 127 131 132 131 132 130 126 124 122 116 111 109 109 109 108 108 108 109 111
333 333 333 332 333 333 334 335 333 325 318 312 308 304 293 267 243 249 258 253 245 251 259 262 263 257 249 250 258 260 258 269 288 300 310 316 322 329 335 336 337 336 331 332 349 3 2 175 137 119 123 130 122 105 91 89 93 96 97 97 100 105 111 116 119 120 120 120 122 124 124 122 120 116 110 106 104 103 101 100 100 100 102 104 104 104 105
335 336 336 335 335 337 339 340 337 330 323 315 308 304 295 275 249 244 254 256 246 245 253 256 257 254 245 240 246 251 250 254 271 293 307 313 317 325 331 333 332 328 320 318 328 343 348 165 157 156 154 142 124 105 97 101 104 103 102 102 105 111 117 119 120 120 121 122 121 120 117 113 111 108 105 102 99 98 98 97 94 91 93 96 99 102 106
340 339 338 340 342 343 344 345 342 337 332 324 314 303 292 276 256 246 249 253 245 238 242 247 247 245 244 244 244 243 242 245 256 275 297 307 312 317 324 328 324 315 304 302 309 317 307 188 173 179 169 148 133 120 115 114 112 110 110 109 111 115 118 119 118 117 117 116 117 117 116 113 112 110 107 105 103 101 99 98 95 92 92 93 94 100 110
345 346 345 345 346 347 348 349 348 343 339 332 319 303 287 273 259 248 246 249 247 239 232 237 244 245 242 240 240 238 235 241 253 260 269 284 295 303 312 319 315 304 295 294 301 303 282 209 188 189 179 158 142 133 130 127 121 118 118 118 118 118 118 119 119 118 114 109 110 113 113 111 111 111 109 108 106 104 101 99 98 96 93 90 91 100 112
342 341 340 341 342 344 345 346 346 344 340 336 329 317 303 284 259 243 240 244 246 243 235 235 242 247 245 237 235 234 234 241 258 254 244 254 272 288 299 303 295 284 282 289 296 295 274 232 201 189 180 166 154 146 141 136 131 128 127 125 122 119 117 117 118 117 112 109 110 112 110 108 108 109 109 109 109 106 103 101 100 99 97 94 94 100 110
333 330 332 336 340 342 344 345 346 345 343 340 336 332 326 319 289 236 227 233 236 237 239 240 242 248 251 247 238 230 224 220 226 240 248 253 261 271 280 283 276 264 259 265 280 294 289 249 208 191 177 164 158 153 147 143 139 136 134 131 126 121 117 114 114 113 113 113 113 111 108 106 106 108 110 110 108 107 106 105 104 102 101 99 99 100 104
336 335 335 339 342 344 346 350 351 348 347 342 336 338 344 345 338 288 236 237 238 236 237 239 239 242 249 253 254 252 242 226 220 228 243 251 255 261 265 265 267 268 262 255 263 282 283 228 200 191 177 165 159 153 150 148 145 141 139 136 129 122 117 114 110 109 111 113 111 109 109 109 108 108 111 110 107 106 106 106 104 103 102 100 101 102 102
340 339 334 336 342 344 348 354 355 353 355 356 352 352 355 351 348 343 309 261 249 240 235 234 235 237 245 254 256 255 250 227 207 212 228 236 236 238 241 245 268 282 272 255 256 268 256 187 186 184 172 162 157 154 153 151 147 142 139 136 130 124 120 116 111 108 109 110 109 109 111 111 108 107 108 108 106 106 106 105 104 104 102 100 100 98 97
342 344 341 342 345 347 351 358 360 359 3 6 3 2 3 359 357 0 4 352 314 266 240 230 225 215 191 145 106 85 72 71 101 160 203 218 204 182 156 65 347 312 293 272 260 250 199 173 180 180 169 160 156 153 152 151 148 143 138 133 130 127 123 118 114 111 110 110 109 108 108 108 107 105 104 103 103 105 105 104 103 103 101 101 100 97 93
345 354 356 356 355 354 354 359 2 3 7 9 8 7 7 6 6 10 13 10 6 358 206 167 140 120 109 96 82 67 58 60 75 95 96 109 156 132 96 68 43 341 298 281 260 217 181 177 180 175 167 160 155 150 148 148 146 141 136 132 129 126 123 120 117 114 111 111 111 109 106 105 104 103 101 102 103 103 100 99 101 101 99 97 97 95 92
349 358 3 5 6 3 360 0 3 5 7 9 12 13 12 10 13 18 17 12 13 23 49 84 90 80 73 73 68 56 54 59 69 84 93 98 108 101 80 54 37 33 342 257 231 185 169 172 174 168 160 156 151 145 144 145 142 136 132 129 126 123 121 120 118 116 113 112 111 109 107 105 103 101 101 102 101 101 99 98 99 98 97 96 96 95 94
357 2 6 8 10 9 7 5 5 6 8 9 12 16 19 19 19 20 18 14 17 23 34 51 65 68 68 70 65 55 47 46 49 58 70 73 66 67 62 38 26 35 61 147 175 164 155 156 158 156 151 147 143 138 136 136 134 130 128 127 125 122 120 119 118 117 115 114 111 109 107 105 102 101 101 100 99 99 100 99 98 97 97 97 96 96 96
1 4 7 9 10 11 11 10 8 9 12 11 10 14 21 25 26 24 21 22 26 26 27 34 46 55 59 62 60 53 44 39 40 47 53 52 47 43 41 30 24 30 68 107 127 139 141 139 142 144 141 137 136 134 131 129 127 125 123 123 122 120 119 118 118 117 116 114 112 110 108 106 105 103 102 100 99 99 100 100 100 99 98 98 98 99 99
10 9 7 8 10 11 12 12 12 12 15 15 15 15 20 27 30 30 27 26 28 27 26 28 34 39 45 51 54 50 40 34 34 40 48 49 47 43 38 32 28 28 59 99 110 116 118 118 122 127 128 128 128 126 122 118 116 116 116 116 117 116 116 116 116 115 114 112 110 108 107 106 105 103 101 100 100 101 101 101 100 100 100 100 100 101 100
18 20 12 7 10 12 12 13 14 14 14 17 22 24 24 27 32 34 33 30 27 27 27 28 29 31 37 46 51 49 42 36 34 36 42 45 42 38 36 37 37 36 51 85 101 105 107 108 111 116 121 123 123 122 117 112 109 108 108 109 111 113 113 112 112 111 110 109 108 107 105 105 104 102 100 98 99 100 100 99 99 100 101 101 100 99 99
2 15 16 14 15 14 13 13 15 16 15 20 28 32 32 31 32 35 37 36 33 29 27 27 27 29 33 39 46 51 52 48 42 39 41 43 35 32 36 40 40 39 48 69 85 94 100 106 108 111 115 117 117 115 112 110 108 106 105 105 106 108 108 108 108 108 107 106 106 106 105 104 103 102 100 98 97 97 97 96 97 97 97 97 96 96 95
354 353 6 18 19 16 17 22 24 22 21 25 30 33 33 33 33 35 37 39 38 35 32 30 29 29 30 32 35 42 49 51 48 46 46 45 41 39 41 44 44 45 50 59 66 75 90 103 106 106 106 107 106 105 104 104 104 105 104 104 105 105 105 105 106 107 106 105 104 105 105 104 103 102 101 99 98 96 96 95 95 94 93 92 92 92 91
6 359 358 11 16 14 19 28 29 25 22 24 27 29 31 34 36 37 38 39 40 40 38 36 35 33 33 34 35 35 38 44 47 46 45 46 48 47 45 44 45 49 55 59 60 61 72 89 99 102 102 101 99 98 98 99 101 102 102 102 103 103 103 103 103 103 104 104 104 105 105 105 104 104 104 102 101 100 99 97 96 94 93 92 90 88 87
16 8 4 7 7 5 12 23 28 23 18 16 16 20 27 33 36 38 39 40 42 42 41 41 40 38 37 37 39 38 38 41 45 44 43 45 49 50 48 46 47 50 54 57 60 62 66 73 82 90 94 96 95 95 95 96 97 98 98 99 100 100 101 102 103 103 104 105 106 105 105 105 105 105 105 104 103 103 101 99 97 95 93 91 90 88 86
22 17 15 15 11 1 7 20 24 18 12 13 15 17 25 33 37 37 38 40 41 42 43 44 44 43 42 42 42 43 44 46 50 52 51 50 51 52 52 52 53 53 53 52 55 60 65 68 71 75 81 86 89 92 95 96 96 96 96 97 98 98 100 102 104 105 105 105 104 104 105 105 105 105 106 106 106 105 102 99 97 95 92 90 89 88 86
25 21 14 9 5 0 356 12 28 29 24 20 18 18 26 35 39 38 39 41 42 40 39 41 44 47 49 49 47 46 47 49 50 54 56 56 54 53 54 55 57 59 59 56 54 57 62 66 68 71 74 77 81 85 90 93 95 95 95 95 96 97 99 101 103 104 105 105 104 104 104 104 104 105 106 105 104 102 99 97 96 94 91 88 87 85 84
31 26 17 11 15 19 19 16 39 44 38 31 23 21 28 36 39 40 44 48 49 44 39 39 43 49 53 54 52 51 52 54 54 55 58 60 58 56 55 55 57 60 62 61 59 59 61 64 66 69 72 74 76 79 83 88 91 93 95 96 96 97 100 103 103 104 105 107 107 105 106 107 107 106 105 103 101 99 98 96 94 91 88 85 83 81 79
43 38 34 32 35 41 46 48 55 63 51 38 31 26 27 31 33 34 40 50 57 57 54 50 48 46 47 49 53 56 59 61 61 61 62 65 65 63 60 57 56 57 60 62 63 64 65 66 68 70 72 73 74 75 78 82 85 89 92 95 97 98 101 104 105 106 106 106 105 104 104 105 105 103 101 99 98 96 94 91 89 87 85 84 83 81 77